When you browse on this site, cookies collect data to enhance your experience and personalize the content and advertising you see.
Visit our Privacy Policy to learn more. By continuing to use the site, you agree to this use of cookies and data.
  • In France
  • List of Countries
  • For 7 days
  • Water Temperature
  • Weather Map
  • Weather Widgets
  • user-avatar
    Login

    Hourly Weather Bukavu

    Today, 1 June, Monday

    Time Temperature Precipitation Wind Pressure Humidity
    00:00 +20°C° 0.3 mm 0 mps 689 mmHg 95%
    01:00 +19°C° 0.3 mm 0 mps 689 mmHg 97%
    02:00 +19°C° 0.3 mm 0 mps 689 mmHg 98%
    03:00 +19°C° 0 mm 0 mps 689 mmHg 98%
    04:00 +18°C° 0 mm 0 mps 689 mmHg 98%
    05:00 +18°C° 0 mm 0 mps 689 mmHg 98%
    06:00 +20°C° 0 mm 0 mps 689 mmHg 95%
    07:00 +21°C° 0 mm 0 mps 690 mmHg 93%
    08:00 +22°C° 0 mm 0 mps 691 mmHg 90%
    09:00 +25°C° 0 mm 0 mps 691 mmHg 76%
    10:00 +28°C° 0 mm 0 mps 691 mmHg 62%
    11:00 +31°C° 0 mm 0 mps 691 mmHg 48%
    12:00 +33°C° 0.1 mm 1 mps 690 mmHg 48%
    13:00 +32°C° 0.1 mm 1 mps 690 mmHg 49%
    14:00 +31°C° 0.1 mm 1 mps 689 mmHg 49%
    15:00 +31°C° 0 mm 1 mps 688 mmHg 54%
    16:00 +30°C° 0 mm 1 mps 688 mmHg 60%
    17:00 +29°C° 0 mm 1 mps 688 mmHg 65%
    18:00 +25°C° 0 mm 0 mps 688 mmHg 70%
    19:00 +24°C° 0 mm 0 mps 688 mmHg 75%
    20:00 +22°C° 0 mm 0 mps 688 mmHg 80%
    21:00 +21°C° 0 mm 0 mps 688 mmHg 83%
    22:00 +21°C° 0 mm 0 mps 688 mmHg 86%
    23:00 +20°C° 0 mm 0 mps 688 mmHg 89%

    Tomorrow, 2 June, Tuesday

    Time Temperature Precipitation Wind Pressure Humidity
    00:00 +20°C° 0 mm 0 mps 688 mmHg 91%
    01:00 +19°C° 0 mm 0 mps 688 mmHg 92%
    02:00 +19°C° 0 mm 0 mps 688 mmHg 94%
    03:00 +19°C° 0.3 mm 0 mps 688 mmHg 95%
    04:00 +19°C° 0.3 mm 0 mps 688 mmHg 96%
    05:00 +18°C° 0.3 mm 0 mps 688 mmHg 97%
    06:00 +20°C° 0 mm 0 mps 689 mmHg 93%
    07:00 +21°C° 0 mm 0 mps 690 mmHg 89%
    08:00 +23°C° 0 mm 0 mps 690 mmHg 86%
    09:00 +25°C° 0.1 mm 0 mps 690 mmHg 73%
    10:00 +30°C° 0.1 mm 1 mps 690 mmHg 61%
    11:00 +33°C° 0.1 mm 1 mps 690 mmHg 48%
    12:00 +33°C° 0 mm 1 mps 690 mmHg 47%
    13:00 +33°C° 0 mm 1 mps 689 mmHg 45%
    14:00 +33°C° 0 mm 1 mps 689 mmHg 44%
    15:00 +32°C° 0 mm 1 mps 688 mmHg 49%
    16:00 +29°C° 0 mm 0 mps 688 mmHg 53%
    17:00 +29°C° 0 mm 0 mps 687 mmHg 58%
    18:00 +26°C° 0 mm 0 mps 687 mmHg 64%
    19:00 +24°C° 0 mm 0 mps 688 mmHg 71%
    20:00 +24°C° 0 mm 1 mps 688 mmHg 78%
    21:00 +22°C° 0 mm 0 mps 687 mmHg 81%
    22:00 +21°C° 0 mm 0 mps 687 mmHg 85%
    23:00 +20°C° 0 mm 0 mps 687 mmHg 88%

    Day after tomorrow, 3 June, Wednesday

    Time Temperature Precipitation Wind Pressure Humidity
    00:00 +20°C° 0.3 mm 0 mps 687 mmHg 91%
    01:00 +19°C° 0.3 mm 0 mps 687 mmHg 94%
    02:00 +19°C° 0.3 mm 0 mps 687 mmHg 97%
    03:00 +19°C° 0.3 mm 0 mps 687 mmHg 97%
    04:00 +18°C° 0.3 mm 0 mps 687 mmHg 98%
    05:00 +18°C° 0.3 mm 0 mps 688 mmHg 98%
    06:00 +19°C° 0.5 mm 0 mps 688 mmHg 97%
    07:00 +20°C° 0.5 mm 0 mps 689 mmHg 95%
    08:00 +21°C° 0.5 mm 0 mps 690 mmHg 93%
    09:00 +23°C° 0.8 mm 0 mps 690 mmHg 91%
    10:00 +25°C° 0.8 mm 0 mps 689 mmHg 89%
    11:00 +26°C° 0.8 mm 0 mps 689 mmHg 87%
    12:00 +29°C° 1.4 mm 1 mps 689 mmHg 84%
    13:00 +29°C° 1.4 mm 1 mps 688 mmHg 81%
    14:00 +29°C° 1.4 mm 1 mps 688 mmHg 78%
    15:00 +28°C° 0.2 mm 1 mps 688 mmHg 76%
    16:00 +28°C° 0.2 mm 1 mps 688 mmHg 75%
    17:00 +28°C° 0.2 mm 1 mps 687 mmHg 73%
    18:00 +26°C° 0.1 mm 1 mps 687 mmHg 80%
    19:00 +22°C° 0.1 mm 0 mps 688 mmHg 87%
    20:00 +21°C° 0.1 mm 0 mps 688 mmHg 94%
    21:00 +20°C° 0 mm 0 mps 688 mmHg 93%
    22:00 +22°C° 0 mm 1 mps 688 mmHg 92%
    23:00 +22°C° 0 mm 1 mps 688 mmHg 91%

    4 June, Thursday

    Time Temperature Precipitation Wind Pressure Humidity
    00:00 +22°C° 0.1 mm 1 mps 688 mmHg 91%
    01:00 +19°C° 0.1 mm 0 mps 688 mmHg 92%
    02:00 +19°C° 0.1 mm 0 mps 688 mmHg 93%
    03:00 +19°C° 0.3 mm 0 mps 687 mmHg 95%
    04:00 +18°C° 0.3 mm 0 mps 687 mmHg 96%
    05:00 +18°C° 0.3 mm 0 mps 687 mmHg 97%
    06:00 +19°C° 0.1 mm 0 mps 688 mmHg 94%
    07:00 +21°C° 0.1 mm 0 mps 689 mmHg 92%
    08:00 +24°C° 0.1 mm 1 mps 690 mmHg 89%
    09:00 +25°C° 0.6 mm 1 mps 690 mmHg 87%
    10:00 +23°C° 0.6 mm 0 mps 689 mmHg 86%
    11:00 +24°C° 0.6 mm 0 mps 689 mmHg 85%
    12:00 +28°C° 0.7 mm 1 mps 689 mmHg 77%
    13:00 +29°C° 0.7 mm 1 mps 689 mmHg 69%
    14:00 +30°C° 0.7 mm 1 mps 689 mmHg 61%
    15:00 +30°C° 0.2 mm 1 mps 688 mmHg 63%
    16:00 +29°C° 0.2 mm 1 mps 688 mmHg 65%
    17:00 +28°C° 0.2 mm 1 mps 687 mmHg 67%
    18:00 +26°C° 0.2 mm 1 mps 688 mmHg 75%
    19:00 +25°C° 0.2 mm 1 mps 688 mmHg 83%
    20:00 +23°C° 0.2 mm 1 mps 688 mmHg 92%
    21:00 +22°C° 0 mm 1 mps 689 mmHg 92%
    22:00 +22°C° 0 mm 1 mps 689 mmHg 93%
    23:00 +22°C° 0 mm 1 mps 689 mmHg 94%

    5 June, Friday

    Time Temperature Precipitation Wind Pressure Humidity
    00:00 +21°C° 0 mm 1 mps 689 mmHg 94%
    01:00 +20°C° 0 mm 1 mps 689 mmHg 94%
    02:00 +18°C° 0 mm 0 mps 688 mmHg 95%
    03:00 +18°C° 0 mm 0 mps 688 mmHg 96%
    04:00 +17°C° 0 mm 0 mps 688 mmHg 97%
    05:00 +17°C° 0 mm 0 mps 688 mmHg 98%
    06:00 +19°C° 0 mm 0 mps 689 mmHg 90%
    07:00 +20°C° 0 mm 0 mps 690 mmHg 82%
    08:00 +22°C° 0 mm 0 mps 691 mmHg 75%
    09:00 +27°C° 0 mm 1 mps 691 mmHg 64%
    10:00 +30°C° 0 mm 1 mps 691 mmHg 52%
    11:00 +33°C° 0 mm 1 mps 691 mmHg 41%
    12:00 +33°C° 0 mm 1 mps 690 mmHg 40%
    13:00 +33°C° 0 mm 1 mps 690 mmHg 39%
    14:00 +34°C° 0 mm 1 mps 689 mmHg 39%
    15:00 +33°C° 0 mm 1 mps 689 mmHg 44%
    16:00 +32°C° 0 mm 1 mps 688 mmHg 49%
    17:00 +31°C° 0 mm 1 mps 688 mmHg 55%
    18:00 +28°C° 0.1 mm 1 mps 688 mmHg 63%
    19:00 +26°C° 0.1 mm 1 mps 688 mmHg 71%
    20:00 +24°C° 0.1 mm 1 mps 688 mmHg 79%
    21:00 +23°C° 0.7 mm 1 mps 688 mmHg 85%
    22:00 +22°C° 0.7 mm 1 mps 689 mmHg 92%
    23:00 +22°C° 0.7 mm 1 mps 689 mmHg 98%

    6 June, Saturday

    Time Temperature Precipitation Wind Pressure Humidity
    00:00 +21°C° 0.1 mm 1 mps 689 mmHg 98%
    01:00 +21°C° 0.1 mm 1 mps 688 mmHg 97%
    02:00 +21°C° 0.1 mm 1 mps 688 mmHg 97%
    03:00 +21°C° 0 mm 1 mps 688 mmHg 97%
    04:00 +21°C° 0 mm 1 mps 688 mmHg 96%
    05:00 +21°C° 0 mm 1 mps 688 mmHg 95%
    06:00 +22°C° 0 mm 1 mps 689 mmHg 93%
    07:00 +21°C° 0 mm 0 mps 689 mmHg 90%
    08:00 +22°C° 0 mm 0 mps 690 mmHg 87%
    09:00 +25°C° 0 mm 0 mps 690 mmHg 72%
    10:00 +28°C° 0 mm 0 mps 691 mmHg 58%
    11:00 +32°C° 0 mm 0 mps 691 mmHg 43%
    12:00 +31°C° 0 mm 0 mps 690 mmHg 45%
    13:00 +31°C° 0 mm 0 mps 689 mmHg 46%
    14:00 +32°C° 0 mm 1 mps 688 mmHg 48%
    15:00 +31°C° 0.3 mm 1 mps 688 mmHg 54%
    16:00 +29°C° 0.3 mm 2 mps 688 mmHg 61%
    17:00 +28°C° 0.3 mm 2 mps 687 mmHg 67%
    18:00 +26°C° 1.5 mm 2 mps 687 mmHg 78%
    19:00 +23°C° 1.5 mm 1 mps 687 mmHg 88%
    20:00 +21°C° 1.5 mm 1 mps 687 mmHg 98%
    21:00 +21°C° 0.3 mm 1 mps 688 mmHg 98%
    22:00 +21°C° 0.3 mm 1 mps 688 mmHg 98%
    23:00 +21°C° 0.3 mm 1 mps 688 mmHg 98%
    Show more